When you browse on this site, cookies collect data to enhance your experience and personalize the content and advertising you see.
Visit our Privacy Policy to learn more. By continuing to use the site, you agree to this use of cookies and data.
  • In Italy
  • List of Countries
  • For 7 days
  • Water Temperature
  • Weather Map
  • Weather Widgets
  • user-avatar
    Login

    Hourly Weather Ahtopol

    Today, 18 August, Sunday

    Time Temperature Precipitation Wind Pressure Humidity
    00:00 +20°C° 0 mm 1 mps 759 mmHg 73%
    01:00 +20°C° 0 mm 1 mps 759 mmHg 74%
    02:00 +18°C° 0 mm 2 mps 759 mmHg 80%
    03:00 +18°C° 0 mm 2 mps 759 mmHg 80%
    04:00 +18°C° 0 mm 2 mps 759 mmHg 79%
    05:00 +18°C° 0 mm 2 mps 759 mmHg 79%
    06:00 +20°C° 0 mm 2 mps 759 mmHg 67%
    07:00 +23°C° 0 mm 2 mps 760 mmHg 56%
    08:00 +25°C° 0 mm 2 mps 760 mmHg 44%
    09:00 +27°C° 0 mm 3 mps 760 mmHg 38%
    10:00 +28°C° 0 mm 3 mps 760 mmHg 33%
    11:00 +30°C° 0 mm 4 mps 760 mmHg 27%
    12:00 +30°C° 0 mm 4 mps 760 mmHg 27%
    13:00 +32°C° 0 mm 5 mps 760 mmHg 27%
    14:00 +32°C° 0 mm 5 mps 760 mmHg 27%
    15:00 +30°C° 0 mm 5 mps 759 mmHg 30%
    16:00 +29°C° 0 mm 5 mps 759 mmHg 33%
    17:00 +29°C° 0 mm 5 mps 759 mmHg 36%
    18:00 +26°C° 0 mm 4 mps 759 mmHg 44%
    19:00 +24°C° 0 mm 3 mps 760 mmHg 52%
    20:00 +20°C° 0 mm 2 mps 760 mmHg 61%
    21:00 +20°C° 0 mm 2 mps 760 mmHg 63%
    22:00 +20°C° 0 mm 1 mps 760 mmHg 66%
    23:00 +20°C° 0 mm 1 mps 760 mmHg 68%

    Tomorrow, 19 August, Monday

    Time Temperature Precipitation Wind Pressure Humidity
    00:00 +19°C° 0 mm 1 mps 760 mmHg 69%
    01:00 +19°C° 0 mm 1 mps 760 mmHg 69%
    02:00 +19°C° 0 mm 1 mps 760 mmHg 70%
    03:00 +19°C° 0 mm 1 mps 760 mmHg 70%
    04:00 +19°C° 0 mm 1 mps 761 mmHg 69%
    05:00 +19°C° 0 mm 1 mps 761 mmHg 69%
    06:00 +21°C° 0 mm 1 mps 761 mmHg 60%
    07:00 +24°C° 0 mm 1 mps 761 mmHg 50%
    08:00 +26°C° 0 mm 1 mps 761 mmHg 41%
    09:00 +28°C° 0 mm 2 mps 761 mmHg 38%
    10:00 +29°C° 0 mm 4 mps 761 mmHg 35%
    11:00 +32°C° 0 mm 5 mps 761 mmHg 32%
    12:00 +32°C° 0 mm 5 mps 761 mmHg 32%
    13:00 +32°C° 0 mm 5 mps 761 mmHg 32%
    14:00 +32°C° 0 mm 6 mps 761 mmHg 33%
    15:00 +30°C° 0 mm 6 mps 761 mmHg 35%
    16:00 +30°C° 0 mm 5 mps 761 mmHg 37%
    17:00 +29°C° 0 mm 5 mps 761 mmHg 39%
    18:00 +26°C° 0 mm 4 mps 761 mmHg 51%
    19:00 +24°C° 0 mm 3 mps 761 mmHg 62%
    20:00 +21°C° 0 mm 2 mps 761 mmHg 74%
    21:00 +21°C° 0 mm 1 mps 762 mmHg 77%
    22:00 +21°C° 0 mm 1 mps 762 mmHg 80%
    23:00 +18°C° 0 mm 0 mps 762 mmHg 82%

    Day after tomorrow, 20 August, Tuesday

    Time Temperature Precipitation Wind Pressure Humidity
    00:00 +20°C° 0 mm 1 mps 762 mmHg 82%
    01:00 +20°C° 0 mm 1 mps 762 mmHg 82%
    02:00 +19°C° 0 mm 2 mps 762 mmHg 82%
    03:00 +19°C° 0 mm 1 mps 761 mmHg 82%
    04:00 +19°C° 0 mm 1 mps 761 mmHg 82%
    05:00 +19°C° 0 mm 1 mps 761 mmHg 81%
    06:00 +20°C° 0 mm 2 mps 762 mmHg 73%
    07:00 +23°C° 0 mm 2 mps 762 mmHg 65%
    08:00 +25°C° 0 mm 3 mps 762 mmHg 56%
    09:00 +27°C° 0 mm 4 mps 762 mmHg 50%
    10:00 +29°C° 0 mm 4 mps 762 mmHg 43%
    11:00 +30°C° 0 mm 5 mps 762 mmHg 37%
    12:00 +32°C° 0 mm 5 mps 762 mmHg 35%
    13:00 +33°C° 0 mm 5 mps 762 mmHg 32%
    14:00 +33°C° 0 mm 5 mps 762 mmHg 30%
    15:00 +33°C° 0 mm 5 mps 761 mmHg 32%
    16:00 +32°C° 0 mm 5 mps 761 mmHg 34%
    17:00 +30°C° 0 mm 5 mps 761 mmHg 36%
    18:00 +28°C° 0 mm 4 mps 761 mmHg 49%
    19:00 +25°C° 0 mm 3 mps 761 mmHg 61%
    20:00 +23°C° 0 mm 2 mps 762 mmHg 74%
    21:00 +23°C° 0 mm 2 mps 762 mmHg 76%
    22:00 +21°C° 0 mm 2 mps 762 mmHg 78%
    23:00 +21°C° 0 mm 2 mps 762 mmHg 79%

    21 August, Wednesday

    Time Temperature Precipitation Wind Pressure Humidity
    00:00 +21°C° 0 mm 2 mps 761 mmHg 78%
    01:00 +21°C° 0 mm 2 mps 761 mmHg 76%
    02:00 +21°C° 0 mm 2 mps 761 mmHg 74%
    03:00 +21°C° 0 mm 2 mps 761 mmHg 72%
    04:00 +21°C° 0 mm 2 mps 761 mmHg 70%
    05:00 +21°C° 0 mm 3 mps 760 mmHg 68%
    06:00 +24°C° 0 mm 3 mps 761 mmHg 62%
    07:00 +26°C° 0 mm 4 mps 761 mmHg 55%
    08:00 +28°C° 0 mm 4 mps 761 mmHg 49%
    09:00 +30°C° 0 mm 5 mps 761 mmHg 44%
    10:00 +33°C° 0 mm 5 mps 761 mmHg 40%
    11:00 +34°C° 0 mm 5 mps 761 mmHg 36%
    12:00 +35°C° 0 mm 6 mps 760 mmHg 35%
    13:00 +35°C° 0 mm 6 mps 760 mmHg 34%
    14:00 +36°C° 0 mm 6 mps 759 mmHg 34%
    15:00 +35°C° 0 mm 6 mps 759 mmHg 36%
    16:00 +34°C° 0 mm 5 mps 759 mmHg 38%
    17:00 +33°C° 0 mm 5 mps 759 mmHg 41%
    18:00 +30°C° 0 mm 4 mps 759 mmHg 50%
    19:00 +27°C° 0 mm 3 mps 759 mmHg 60%
    20:00 +25°C° 0 mm 2 mps 759 mmHg 70%
    21:00 +24°C° 0 mm 2 mps 759 mmHg 70%
    22:00 +24°C° 0 mm 2 mps 759 mmHg 71%
    23:00 +24°C° 0 mm 2 mps 760 mmHg 71%

    22 August, Thursday

    Time Temperature Precipitation Wind Pressure Humidity
    00:00 +24°C° 0 mm 2 mps 759 mmHg 69%
    01:00 +24°C° 0 mm 2 mps 759 mmHg 67%
    02:00 +24°C° 0 mm 2 mps 759 mmHg 64%
    03:00 +24°C° 0 mm 2 mps 759 mmHg 63%
    04:00 +24°C° 0 mm 2 mps 759 mmHg 62%
    05:00 +24°C° 0 mm 2 mps 759 mmHg 61%
    06:00 +26°C° 0 mm 3 mps 759 mmHg 54%
    07:00 +28°C° 0 mm 3 mps 759 mmHg 46%
    08:00 +32°C° 0 mm 4 mps 759 mmHg 39%
    09:00 +33°C° 0 mm 4 mps 759 mmHg 35%
    10:00 +35°C° 0 mm 5 mps 759 mmHg 30%
    11:00 +36°C° 0 mm 6 mps 759 mmHg 26%
    12:00 +38°C° 0 mm 6 mps 759 mmHg 25%
    13:00 +39°C° 0 mm 6 mps 759 mmHg 24%
    14:00 +39°C° 0 mm 6 mps 758 mmHg 23%
    15:00 +37°C° 0 mm 5 mps 758 mmHg 27%
    16:00 +36°C° 0 mm 5 mps 758 mmHg 30%
    17:00 +35°C° 0 mm 4 mps 758 mmHg 34%
    18:00 +33°C° 0 mm 3 mps 758 mmHg 42%
    19:00 +29°C° 0 mm 2 mps 758 mmHg 49%
    20:00 +25°C° 0 mm 0 mps 758 mmHg 57%
    21:00 +27°C° 0 mm 2 mps 759 mmHg 56%
    22:00 +27°C° 0 mm 3 mps 759 mmHg 56%
    23:00 +27°C° 0 mm 4 mps 759 mmHg 55%

    23 August, Friday

    Time Temperature Precipitation Wind Pressure Humidity
    00:00 +26°C° 0 mm 5 mps 759 mmHg 58%
    01:00 +26°C° 0 mm 5 mps 759 mmHg 60%
    02:00 +26°C° 0 mm 5 mps 759 mmHg 63%
    03:00 +25°C° 0 mm 5 mps 759 mmHg 66%
    04:00 +23°C° 0 mm 5 mps 759 mmHg 69%
    05:00 +22°C° 0 mm 5 mps 759 mmHg 72%
    06:00 +23°C° 0 mm 4 mps 759 mmHg 67%
    07:00 +25°C° 0 mm 4 mps 759 mmHg 62%
    08:00 +26°C° 0 mm 4 mps 760 mmHg 57%
    09:00 +29°C° 0 mm 5 mps 760 mmHg 50%
    10:00 +32°C° 0 mm 5 mps 760 mmHg 43%
    11:00 +34°C° 0 mm 5 mps 760 mmHg 36%
    12:00 +35°C° 0 mm 6 mps 759 mmHg 34%
    13:00 +36°C° 0 mm 6 mps 759 mmHg 32%
    14:00 +39°C° 0 mm 6 mps 759 mmHg 29%
    15:00 +36°C° 0 mm 6 mps 759 mmHg 34%
    16:00 +35°C° 0 mm 6 mps 759 mmHg 38%
    17:00 +34°C° 0 mm 6 mps 759 mmHg 43%
    18:00 +30°C° 0 mm 5 mps 759 mmHg 52%
    19:00 +28°C° 0 mm 4 mps 759 mmHg 61%
    20:00 +26°C° 0 mm 2 mps 759 mmHg 70%
    21:00 +26°C° 0 mm 2 mps 759 mmHg 70%
    22:00 +26°C° 0 mm 2 mps 759 mmHg 71%
    23:00 +25°C° 0 mm 2 mps 759 mmHg 71%
    Show more